Time,TemperatureF,DewpointF,PressureIn,WindDirection,WindDirectionDegrees,WindSpeedMPH,WindSpeedGustMPH,Humidity,HourlyPrecipIn,Conditions,Clouds,dailyrainin,SoftwareType,DateUTC
2017-06-25 00:03:00,66.9,40.5,29.82,SSE,152,4.0,5.0,38,0.00,CLR,CLR,0.00,WeatherDisplay:10.34,2017-06-25 04:03:00,
2017-06-25 00:08:00,66.9,40.5,29.82,NW,308,3.0,6.0,38,0.00,CLR,CLR,0.00,WeatherDisplay:10.34,2017-06-25 04:08:00,
2017-06-25 00:13:00,66.7,39.6,29.82,NNE,16,3.0,5.0,37,0.00,CLR,CLR,0.00,WeatherDisplay:10.34,2017-06-25 04:13:00,
2017-06-25 00:18:00,66.7,40.3,29.86,WSW,242,4.0,7.0,38,0.00,CLR,CLR,0.00,WeatherDisplay:10.34,2017-06-25 04:18:00,
2017-06-25 00:23:00,66.6,40.1,29.86,SSW,200,4.0,5.0,38,0.00,CLR,CLR,0.00,WeatherDisplay:10.34,2017-06-25 04:23:00,
2017-06-25 00:28:00,66.6,40.1,29.86,WSW,247,4.0,4.0,38,0.00,CLR,CLR,0.00,WeatherDisplay:10.34,2017-06-25 04:28:00,
2017-06-25 00:33:00,66.6,40.1,29.86,SW,229,4.0,6.0,38,0.00,CLR,CLR,0.00,WeatherDisplay:10.34,2017-06-25 04:33:00,
2017-06-25 00:38:00,66.4,40.0,29.86,NNE,26,4.0,8.0,38,0.00,CLR,CLR,0.00,WeatherDisplay:10.34,2017-06-25 04:38:00,
2017-06-25 00:43:00,66.2,39.8,29.86,South,177,3.0,3.0,38,0.00,CLR,CLR,0.00,WeatherDisplay:10.34,2017-06-25 04:43:00,
2017-06-25 00:48:00,66.0,40.3,29.86,WSW,253,3.0,5.0,39,0.00,CLR,CLR,0.00,WeatherDisplay:10.34,2017-06-25 04:48:00,
2017-06-25 00:53:00,65.8,40.8,29.86,WSW,255,0.0,5.0,40,0.00,CLR,CLR,0.00,WeatherDisplay:10.34,2017-06-25 04:53:00,
2017-06-25 00:58:00,65.5,41.1,29.86,SW,225,3.0,3.0,41,0.00,CLR,CLR,0.00,WeatherDisplay:10.34,2017-06-25 04:58:00,
2017-06-25 01:03:00,65.5,41.1,29.86,SW,224,3.0,3.0,41,0.00,CLR,CLR,0.00,WeatherDisplay:10.34,2017-06-25 05:03:00,
2017-06-25 01:08:00,65.3,41.6,29.86,West,270,3.0,5.0,42,0.00,CLR,CLR,0.00,WeatherDisplay:10.34,2017-06-25 05:08:00,
2017-06-25 01:13:00,65.1,41.4,29.86,WSW,255,4.0,7.0,42,0.00,CLR,CLR,0.00,WeatherDisplay:10.34,2017-06-25 05:13:00,
2017-06-25 01:18:00,64.8,41.7,29.86,SW,228,3.0,5.0,43,0.00,CLR,CLR,0.00,WeatherDisplay:10.34,2017-06-25 05:18:00,
2017-06-25 01:23:00,64.8,41.7,29.86,SW,227,3.0,3.0,43,0.00,CLR,CLR,0.00,WeatherDisplay:10.34,2017-06-25 05:23:00,
2017-06-25 01:28:00,64.6,41.6,29.86,WSW,237,0.0,0.0,43,0.00,CLR,CLR,0.00,WeatherDisplay:10.34,2017-06-25 05:28:00,
2017-06-25 01:33:00,64.4,41.4,29.86,SSW,213,0.0,0.0,43,0.00,CLR,CLR,0.00,WeatherDisplay:10.34,2017-06-25 05:33:00,
2017-06-25 01:38:00,63.9,41.5,29.86,SSW,213,0.0,0.0,44,0.00,CLR,CLR,0.00,WeatherDisplay:10.34,2017-06-25 05:38:00,
2017-06-25 01:41:00,63.7,41.3,29.86,SSW,213,0.0,0.0,44,0.00,CLR,CLR,0.00,WeatherDisplay:10.34,2017-06-25 05:41:00,
2017-06-25 01:46:00,63.1,41.4,29.86,SSW,213,0.0,0.0,45,0.00,CLR,CLR,0.00,WeatherDisplay:10.34,2017-06-25 05:46:00,
2017-06-25 01:51:00,62.6,42.1,29.86,SSW,213,0.0,0.0,47,0.00,CLR,CLR,0.00,WeatherDisplay:10.34,2017-06-25 05:51:00,
2017-06-25 01:56:00,62.1,42.1,29.86,SSW,213,0.0,0.0,48,0.00,CLR,CLR,0.00,WeatherDisplay:10.34,2017-06-25 05:56:00,
2017-06-25 02:01:00,61.7,41.8,29.86,SSW,213,0.0,0.0,48,0.00,CLR,CLR,0.00,WeatherDisplay:10.34,2017-06-25 06:01:00,
2017-06-25 02:06:00,61.5,42.2,29.86,SSW,213,0.0,2.0,49,0.00,CLR,CLR,0.00,WeatherDisplay:10.34,2017-06-25 06:06:00,
2017-06-25 02:11:00,61.5,42.2,29.86,SSW,213,0.0,3.0,49,0.00,CLR,CLR,0.00,WeatherDisplay:10.34,2017-06-25 06:11:00,
2017-06-25 02:16:00,61.7,42.3,29.89,SSW,213,0.0,0.0,49,0.00,CLR,CLR,0.00,WeatherDisplay:10.34,2017-06-25 06:16:00,
2017-06-25 02:21:00,61.7,42.3,29.89,SSW,213,0.0,0.0,49,0.00,CLR,CLR,0.00,WeatherDisplay:10.34,2017-06-25 06:21:00,
2017-06-25 02:26:00,61.5,42.2,29.89,SSW,213,0.0,0.0,49,0.00,CLR,CLR,0.00,WeatherDisplay:10.34,2017-06-25 06:26:00,
2017-06-25 02:31:00,61.5,42.2,29.90,SSW,213,0.0,0.0,49,0.00,CLR,CLR,0.00,WeatherDisplay:10.34,2017-06-25 06:31:00,
2017-06-25 02:36:00,61.3,42.0,29.90,SSW,213,0.0,2.0,49,0.00,CLR,CLR,0.00,WeatherDisplay:10.34,2017-06-25 06:36:00,
2017-06-25 02:41:00,61.2,41.8,29.90,SSW,213,0.0,0.0,49,0.00,CLR,CLR,0.00,WeatherDisplay:10.34,2017-06-25 06:41:00,
2017-06-25 02:46:00,61.0,41.7,29.90,SSW,213,0.0,0.0,49,0.00,CLR,CLR,0.00,WeatherDisplay:10.34,2017-06-25 06:46:00,
2017-06-25 02:51:00,61.0,41.7,29.90,SSW,213,0.0,0.0,49,0.00,CLR,CLR,0.00,WeatherDisplay:10.34,2017-06-25 06:51:00,
2017-06-25 02:56:00,60.8,41.5,29.90,SSW,213,0.0,0.0,49,0.00,CLR,CLR,0.00,WeatherDisplay:10.34,2017-06-25 06:56:00,
2017-06-25 03:01:00,60.6,41.9,29.90,SSW,213,0.0,0.0,50,0.00,CLR,CLR,0.00,WeatherDisplay:10.34,2017-06-25 07:01:00,
2017-06-25 03:06:00,60.4,41.7,29.90,SSW,213,0.0,0.0,50,0.00,CLR,CLR,0.00,WeatherDisplay:10.34,2017-06-25 07:06:00,
2017-06-25 03:11:00,60.3,42.0,29.90,SSW,213,0.0,0.0,51,0.00,CLR,CLR,0.00,WeatherDisplay:10.34,2017-06-25 07:11:00,
2017-06-25 03:16:00,60.1,41.9,29.90,SW,214,0.0,0.0,51,0.00,CLR,CLR,0.00,WeatherDisplay:10.34,2017-06-25 07:16:00,
2017-06-25 03:21:00,60.1,42.4,29.90,SW,214,0.0,0.0,52,0.00,CLR,CLR,0.00,WeatherDisplay:10.34,2017-06-25 07:21:00,
2017-06-25 03:26:00,59.7,42.1,29.90,SSW,213,0.0,0.0,52,0.00,CLR,CLR,0.00,WeatherDisplay:10.34,2017-06-25 07:26:00,
2017-06-25 03:31:00,59.7,42.1,29.90,SSW,213,0.0,0.0,52,0.00,CLR,CLR,0.00,WeatherDisplay:10.34,2017-06-25 07:31:00,
2017-06-25 03:36:00,59.7,42.6,29.90,SSW,213,0.0,0.0,53,0.00,CLR,CLR,0.00,WeatherDisplay:10.34,2017-06-25 07:36:00,
2017-06-25 03:41:00,60.3,42.6,29.90,NNW,333,0.0,0.0,52,0.00,CLR,CLR,0.00,WeatherDisplay:10.34,2017-06-25 07:41:00,
2017-06-25 03:46:00,60.4,42.2,29.90,North,4,0.0,3.0,51,0.00,CLR,CLR,0.00,WeatherDisplay:10.34,2017-06-25 07:46:00,
2017-06-25 03:51:00,60.8,42.5,29.90,North,4,0.0,2.0,51,0.00,CLR,CLR,0.00,WeatherDisplay:10.34,2017-06-25 07:51:00,
2017-06-25 03:56:00,61.0,42.2,29.90,SW,221,0.0,0.0,50,0.00,CLR,CLR,0.00,WeatherDisplay:10.34,2017-06-25 07:56:00,
2017-06-25 04:01:00,61.0,42.2,29.90,SW,221,0.0,0.0,50,0.00,CLR,CLR,0.00,WeatherDisplay:10.34,2017-06-25 08:01:00,
2017-06-25 04:06:00,61.0,42.2,29.90,SW,222,0.0,0.0,50,0.00,CLR,CLR,0.00,WeatherDisplay:10.34,2017-06-25 08:06:00,
2017-06-25 04:11:00,61.0,42.2,29.90,SW,221,0.0,0.0,50,0.00,CLR,CLR,0.00,WeatherDisplay:10.34,2017-06-25 08:11:00,
2017-06-25 04:16:00,61.0,42.2,29.90,SW,223,0.0,0.0,50,0.00,CLR,CLR,0.00,WeatherDisplay:10.34,2017-06-25 08:16:00,
2017-06-25 04:21:00,61.0,42.2,29.90,WNW,289,0.0,7.0,50,0.00,CLR,CLR,0.00,WeatherDisplay:10.34,2017-06-25 08:21:00,
2017-06-25 04:26:00,61.0,41.7,29.90,SW,231,3.0,6.0,49,0.00,CLR,CLR,0.00,WeatherDisplay:10.34,2017-06-25 08:26:00,
2017-06-25 04:31:00,61.0,41.7,29.90,SSW,198,3.0,5.0,49,0.00,CLR,CLR,0.00,WeatherDisplay:10.34,2017-06-25 08:31:00,
2017-06-25 04:36:00,61.0,41.7,29.90,WSW,237,3.0,6.0,49,0.00,CLR,CLR,0.00,WeatherDisplay:10.34,2017-06-25 08:36:00,
2017-06-25 04:41:00,61.0,41.7,29.90,WSW,246,3.0,6.0,49,0.00,CLR,CLR,0.00,WeatherDisplay:10.34,2017-06-25 08:41:00,
2017-06-25 04:46:00,61.0,41.1,29.90,WSW,250,3.0,5.0,48,0.00,CLR,CLR,0.00,WeatherDisplay:10.34,2017-06-25 08:46:00,
2017-06-25 04:51:00,61.0,41.1,29.90,South,191,4.0,6.0,48,0.00,CLR,CLR,0.00,WeatherDisplay:10.34,2017-06-25 08:51:00,
2017-06-25 04:56:00,60.8,41.5,29.90,SW,223,0.0,5.0,49,0.00,CLR,CLR,0.00,WeatherDisplay:10.34,2017-06-25 08:56:00,
2017-06-25 05:01:00,60.8,41.5,29.90,SW,233,0.0,7.0,49,0.00,CLR,CLR,0.00,WeatherDisplay:10.34,2017-06-25 09:01:00,
2017-06-25 05:06:00,60.8,41.5,29.90,SW,235,3.0,5.0,49,0.00,CLR,CLR,0.00,WeatherDisplay:10.34,2017-06-25 09:06:00,
2017-06-25 05:11:00,60.8,41.5,29.90,WSW,237,3.0,3.0,49,0.00,CLR,CLR,0.00,WeatherDisplay:10.34,2017-06-25 09:11:00,
2017-06-25 05:16:00,60.6,41.3,29.90,WSW,252,3.0,3.0,49,0.00,CLR,CLR,0.00,WeatherDisplay:10.34,2017-06-25 09:16:00,
2017-06-25 05:21:00,60.6,41.9,29.90,WSW,244,4.0,7.0,50,0.00,CLR,CLR,0.00,WeatherDisplay:10.34,2017-06-25 09:21:00,
2017-06-25 05:26:00,60.4,41.7,29.90,WSW,253,0.0,3.0,50,0.00,CLR,CLR,0.00,WeatherDisplay:10.34,2017-06-25 09:26:00,
2017-06-25 05:31:00,60.4,41.7,29.93,WSW,247,0.0,3.0,50,0.00,CLR,CLR,0.00,WeatherDisplay:10.34,2017-06-25 09:31:00,
2017-06-25 05:36:00,60.4,41.7,29.93,WNW,302,4.0,7.0,50,0.00,CLR,CLR,0.00,WeatherDisplay:10.34,2017-06-25 09:36:00,
2017-06-25 05:41:00,60.4,42.2,29.93,WSW,250,0.0,0.0,51,0.00,CLR,CLR,0.00,WeatherDisplay:10.34,2017-06-25 09:41:00,
2017-06-25 05:46:00,60.6,42.4,29.93,WNW,294,0.0,5.0,51,0.00,CLR,CLR,0.00,WeatherDisplay:10.34,2017-06-25 09:46:00,
2017-06-25 05:51:00,60.4,42.2,29.93,SW,229,3.0,5.0,51,0.00,CLR,CLR,0.00,WeatherDisplay:10.34,2017-06-25 09:51:00,
2017-06-25 05:56:00,60.6,42.4,29.93,WSW,252,3.0,7.0,51,0.00,CLR,CLR,0.00,WeatherDisplay:10.34,2017-06-25 09:56:00,
2017-06-25 06:02:00,60.6,42.4,29.93,SSE,156,3.0,3.0,51,0.00,CLR,CLR,0.00,WeatherDisplay:10.34,2017-06-25 10:02:00,
2017-06-25 06:07:00,60.8,42.5,29.93,WSW,247,3.0,5.0,51,0.00,CLR,CLR,0.00,WeatherDisplay:10.34,2017-06-25 10:07:00,
2017-06-25 06:12:00,60.8,42.5,29.93,WSW,249,3.0,3.0,51,0.00,CLR,CLR,0.00,WeatherDisplay:10.34,2017-06-25 10:12:00,
2017-06-25 06:17:00,61.0,42.7,29.93,WSW,251,0.0,5.0,51,0.00,CLR,CLR,0.00,WeatherDisplay:10.34,2017-06-25 10:17:00,
2017-06-25 06:22:00,61.0,42.7,29.93,WSW,255,4.0,7.0,51,0.00,CLR,CLR,0.00,WeatherDisplay:10.34,2017-06-25 10:22:00,
2017-06-25 06:27:00,61.0,42.7,29.93,WSW,243,3.0,3.0,51,0.00,CLR,CLR,0.00,WeatherDisplay:10.34,2017-06-25 10:27:00,
2017-06-25 06:32:00,61.2,42.9,29.93,SW,231,3.0,3.0,51,0.00,CLR,CLR,0.00,WeatherDisplay:10.34,2017-06-25 10:32:00,
2017-06-25 06:37:00,61.2,43.4,29.93,West,279,0.0,0.0,52,0.00,CLR,CLR,0.00,WeatherDisplay:10.34,2017-06-25 10:37:00,
2017-06-25 06:42:00,61.3,43.6,29.93,NNW,333,0.0,3.0,52,0.00,CLR,CLR,0.00,WeatherDisplay:10.34,2017-06-25 10:42:00,
2017-06-25 06:47:00,61.3,43.6,29.93,West,261,0.0,3.0,52,0.00,CLR,CLR,0.00,WeatherDisplay:10.34,2017-06-25 10:47:00,
2017-06-25 06:52:00,61.5,43.7,29.93,WSW,254,0.0,3.0,52,0.00,CLR,CLR,0.00,WeatherDisplay:10.34,2017-06-25 10:52:00,
2017-06-25 06:57:00,61.5,43.7,29.92,North,7,3.0,5.0,52,0.00,CLR,CLR,0.00,WeatherDisplay:10.34,2017-06-25 10:57:00,
2017-06-25 07:02:00,61.7,43.9,29.92,WSW,239,3.0,5.0,52,0.00,CLR,CLR,0.00,WeatherDisplay:10.34,2017-06-25 11:02:00,
2017-06-25 07:07:00,61.9,43.5,29.92,SSW,197,3.0,3.0,51,0.00,CLR,CLR,0.00,WeatherDisplay:10.34,2017-06-25 11:07:00,
2017-06-25 07:12:00,61.9,43.5,29.92,SW,228,3.0,6.0,51,0.00,CLR,CLR,0.00,WeatherDisplay:10.34,2017-06-25 11:12:00,
2017-06-25 07:17:00,62.1,43.7,29.92,WSW,242,3.0,7.0,51,0.00,CLR,CLR,0.00,WeatherDisplay:10.34,2017-06-25 11:17:00,
2017-06-25 07:22:00,62.1,43.2,29.92,West,271,5.0,7.0,50,0.00,CLR,CLR,0.00,WeatherDisplay:10.34,2017-06-25 11:22:00,
2017-06-25 07:27:00,62.2,43.4,29.92,West,269,3.0,5.0,50,0.00,CLR,CLR,0.00,WeatherDisplay:10.34,2017-06-25 11:27:00,
2017-06-25 07:32:00,62.4,43.5,29.92,South,170,4.0,5.0,50,0.00,CLR,CLR,0.00,WeatherDisplay:10.34,2017-06-25 11:32:00,
2017-06-25 07:37:00,62.6,43.2,29.92,SW,229,4.0,9.0,49,0.00,CLR,CLR,0.00,WeatherDisplay:10.34,2017-06-25 11:37:00,
2017-06-25 07:42:00,62.8,43.3,29.92,SSE,161,4.0,7.0,49,0.00,CLR,CLR,0.00,WeatherDisplay:10.34,2017-06-25 11:42:00,
2017-06-25 07:47:00,63.0,43.5,29.92,WSW,249,0.0,0.0,49,0.00,CLR,CLR,0.00,WeatherDisplay:10.34,2017-06-25 11:47:00,
2017-06-25 07:52:00,63.1,43.7,29.92,South,189,4.0,6.0,49,0.00,CLR,CLR,0.00,WeatherDisplay:10.34,2017-06-25 11:52:00,
2017-06-25 07:57:00,63.3,43.8,29.92,West,271,4.0,8.0,49,0.00,CLR,CLR,0.00,WeatherDisplay:10.34,2017-06-25 11:57:00,
2017-06-25 08:02:00,63.5,43.4,29.95,West,273,4.0,6.0,48,0.00,CLR,CLR,0.00,WeatherDisplay:10.34,2017-06-25 12:02:00,
2017-06-25 08:07:00,63.7,43.1,29.95,SW,230,4.0,6.0,47,0.00,CLR,CLR,0.00,WeatherDisplay:10.34,2017-06-25 12:07:00,
2017-06-25 08:12:00,63.9,43.2,29.95,SE,139,5.0,7.0,47,0.00,CLR,CLR,0.00,WeatherDisplay:10.34,2017-06-25 12:12:00,
2017-06-25 08:17:00,64.0,42.8,29.95,SW,231,3.0,6.0,46,0.00,CLR,CLR,0.00,WeatherDisplay:10.34,2017-06-25 12:17:00,
2017-06-25 08:22:00,64.2,43.0,29.95,SSW,213,4.0,6.0,46,0.00,CLR,CLR,0.00,WeatherDisplay:10.34,2017-06-25 12:22:00,
2017-06-25 08:27:00,64.2,43.6,29.95,SSW,199,0.0,6.0,47,0.00,CLR,CLR,0.00,WeatherDisplay:10.34,2017-06-25 12:27:00,
2017-06-25 08:32:00,64.4,43.2,29.95,SW,218,4.0,6.0,46,0.00,CLR,CLR,0.00,WeatherDisplay:10.34,2017-06-25 12:32:00,
2017-06-25 08:37:00,64.8,44.1,29.95,SW,218,5.0,8.0,47,0.00,CLR,CLR,0.00,WeatherDisplay:10.34,2017-06-25 12:37:00,
2017-06-25 08:42:00,64.9,43.7,29.95,WSW,253,4.0,6.0,46,0.00,CLR,CLR,0.00,WeatherDisplay:10.34,2017-06-25 12:42:00,
2017-06-25 08:47:00,64.9,43.7,29.95,WSW,238,4.0,6.0,46,0.00,CLR,CLR,0.00,WeatherDisplay:10.34,2017-06-25 12:47:00,
2017-06-25 08:52:00,65.3,44.0,29.95,SSE,158,4.0,6.0,46,0.00,CLR,CLR,0.00,WeatherDisplay:10.34,2017-06-25 12:52:00,
2017-06-25 08:57:00,65.5,43.6,29.95,NE,35,3.0,5.0,45,0.00,CLR,CLR,0.00,WeatherDisplay:10.34,2017-06-25 12:57:00,
2017-06-25 09:02:00,65.5,43.6,29.95,NE,41,3.0,5.0,45,0.00,CLR,CLR,0.00,WeatherDisplay:10.34,2017-06-25 13:02:00,
2017-06-25 09:07:00,65.7,43.1,29.95,North,10,5.0,7.0,44,0.00,CLR,CLR,0.00,WeatherDisplay:10.34,2017-06-25 13:07:00,
2017-06-25 09:12:00,65.7,43.1,29.95,South,169,5.0,6.0,44,0.00,CLR,CLR,0.00,WeatherDisplay:10.34,2017-06-25 13:12:00,
2017-06-25 09:17:00,65.8,43.3,29.95,SW,232,5.0,7.0,44,0.00,CLR,CLR,0.00,WeatherDisplay:10.34,2017-06-25 13:17:00,
2017-06-25 09:22:00,66.0,44.1,29.95,East,79,4.0,7.0,45,0.00,CLR,CLR,0.00,WeatherDisplay:10.34,2017-06-25 13:22:00,
2017-06-25 09:27:00,66.2,43.6,29.95,South,183,5.0,12.0,44,0.00,CLR,CLR,0.00,WeatherDisplay:10.34,2017-06-25 13:27:00,